Regional Weather Roundup
Issued by NWS

Home | Current Version | Previous Version | Text Only | Print | Product List | Glossary Off
Versions: 1 2 3 4 5 6 7 8 9 10 11 12 13 14 15 16 17 18 19 20 21 22 23 24 25 26 27 28 29 30 31 32 33 34 35 36 37 38 39 40 41 42 43 44 45 46 47 48 49 50

000
ASUS43 KBIS 011702
RWRND

NORTH DAKOTA REGIONAL WEATHER ROUNDUP
NATIONAL WEATHER SERVICE BISMARCK ND
1200 PM CDT SAT AUG 01 2015

NOTE: "FAIR" INDICATES FEW OR NO CLOUDS BELOW 12,000 FEET WITH NO
SIGNIFICANT WEATHER AND/OR OBSTRUCTIONS TO VISIBILITY.


NDZ001>003-009>011-017-011800-
NORTHWEST NORTH DAKOTA

CITY           SKY/WX    TMP DP  RH WIND       PRES   REMARKS
WILLISTON      SUNNY     82  56  40 VRB5      29.90S
MINOT          SUNNY     81  51  35 S8        29.88S
$$

NDZ018>021-031>035-040>046-011800-
SOUTHWEST NORTH DAKOTA

CITY           SKY/WX    TMP DP  RH WIND       PRES   REMARKS
BISMARCK       SUNNY     82  60  47 VRB3      29.87F
DICKINSON      SUNNY     83  52  34 NW7       29.92S
GARRISON         N/A     78  58  49 E8        29.89S
HETTINGER ARPT SUNNY     88  46  23 NW16      29.95S
$$

NDZ004>008-012>016-024-026-027-054-011800-
NORTHEAST NORTH DAKOTA

CITY           SKY/WX    TMP DP  RH WIND       PRES   REMARKS
GRAND FORKS    MOSUNNY   81  52  36 SW12      29.86F
GRND FRKS AFB  SUNNY     80  56  42 S9        29.87F
DEVILS LAKE    SUNNY     79  55  44 S8        29.87F
$$

NDZ022-023-025-028>030-036>039-047>053-011800-
SOUTHEAST NORTH DAKOTA

CITY           SKY/WX    TMP DP  RH WIND       PRES   REMARKS
FARGO          SUNNY     80  55  42 S7        29.90F
JAMESTOWN      SUNNY     80  60  50 SE10      29.88F
$$



USA.gov is the U.S. government's official web portal to all federal, state and local government web resources and services.